Zurück zum Katalog

CZ-10B DEB

AktivLEO
NORAD 69973·DEBRIS·🇨🇳 China

Gestartet Jul 10, 2026 von Wenchang Space Launch Site

Loading…

Nächste Überflüge (nächste 24 Stunden)

TLE

AktuellSource: Space-Track

Epoche: Sep 14, 2026, 15:12 UTC

1 69973U 26158B   26257.63390894  .00000022  00000-0  77217-4 0  9992
2 69973  49.9856  21.2237 0006618 172.1141 187.9878 14.24932466  9460

Verfolge CZ-10B DEB in Echtzeit mit AllMySat

Download on the App Store